Waarnemingen

Advertentie
Mijn weer
Tarbes/Ossun, Frankrijk (7621): temperatuur & dauwpunt: 12.02.2019 02:00:00 - 18.02.2019 02:00:00 (CET)Tarbes/Ossun, Frankrijk (7621): temperatuur 5cm: 12.02.2019 02:00:00 - 18.02.2019 02:00:00 (CET)Tarbes/Ossun, Frankrijk (7621): temperatuur -20cm & temperatuur -100cm: 12.02.2019 02:00:00 - 18.02.2019 02:00:00 (CET)Tarbes/Ossun, Frankrijk (7621): windsnelheid & windstoten: 12.02.2019 02:00:00 - 18.02.2019 02:00:00 (CET)Tarbes/Ossun, Frankrijk (7621): windrichting: 12.02.2019 02:00:00 - 18.02.2019 02:00:00 (CET)Tarbes/Ossun, Frankrijk (7621): luchtdruk: 12.02.2019 02:00:00 - 18.02.2019 02:00:00 (CET)Tarbes/Ossun, Frankrijk (7621): zicht: 12.02.2019 02:00:00 - 18.02.2019 02:00:00 (CET)Tarbes/Ossun, Frankrijk (7621): Zonneschijnduur: 12.02.2019 02:00:00 - 18.02.2019 02:00:00 (CET)Tarbes/Ossun, Frankrijk (7621): neerslag: 12.02.2019 02:00:00 - 18.02.2019 02:00:00 (CET)
Datum & Tijd tt [°C] td [°C] tt 5cm [°C] tt -20cm [°C] tt -100cm [°C] ff [km/u] ff [kn] fx [km/u] fx [kn] dd ppp [hPa] vv [km] sd [min] rr [mm]
18.02.2019 02:00:00 - - - - - - - - - - - - - -
18.02.2019 01:00:00 2,5 2,4 -1,1 7,8 8,5 4 2 12 6 ZZO 1020,3 11 0 0,0
18.02.2019 00:00:00 0,5 -0,6 -0,6 7,8 8,5 6 3 10 6 ZZO 1020,8 12 0 0,0
17.02.2019 23:00:00 2,4 0,9 0,1 7,8 8,5 5 3 12 7 ZZW 1020,7 14 0 0,0
17.02.2019 22:00:00 4,4 2,7 0,6 7,8 8,5 7 4 16 9 ZZO 1020,4 17 0 0,0
17.02.2019 21:00:00 4,0 2,2 1,4 7,7 8,5 2 1 11 6 Z 1020,4 20 0 0,0
17.02.2019 20:00:00 7,9 5,2 2,0 7,6 8,5 6 3 11 6 NO 1019,8 18 0 0,0
17.02.2019 19:00:00 10,8 5,3 4,3 7,5 8,5 9 5 13 7 NO 1019,3 25 6 0,0
17.02.2019 18:00:00 13,9 5,8 10,7 7,3 8,5 11 6 18 10 NNO 1018,6 40 60 0,0
17.02.2019 17:00:00 17,4 3,3 11,8 7,1 8,5 10 6 26 14 NNO 1018,4 43 60 0,0
17.02.2019 16:00:00 18,6 1,6 21,8 7,0 8,5 13 7 24 13 NO 1018,6 29 60 0,0
17.02.2019 15:00:00 18,7 2,1 23,8 6,8 8,5 13 7 24 13 NNO 1019,0 29 60 0,0
17.02.2019 14:00:00 17,7 0,3 20,3 6,7 8,5 12 7 25 14 N 1019,7 28 60 0,0
17.02.2019 13:00:00 16,6 4,0 16,0 6,7 8,5 14 8 21 11 N 1020,3 32 60 0,0
17.02.2019 12:00:00 17,0 -0,3 10,4 6,7 8,4 11 6 16 9 NNO 1020,8 24 60 0,0
17.02.2019 11:00:00 13,6 1,2 5,8 6,8 8,5 7 4 10 6 N 1021,5 44 60 0,0
17.02.2019 10:00:00 9,5 -0,7 2,4 6,9 8,5 6 4 18 10 N 1022,3 50 60 0,0
17.02.2019 09:00:00 11,3 -7,1 -1,9 6,9 8,5 16 9 24 13 ZO 1021,9 53 43 0,0
17.02.2019 08:00:00 3,3 -5,9 -2,0 7,0 8,5 7 4 11 6 Z 1023,0 37 0 0,0
17.02.2019 07:00:00 2,7 -5,9 -1,8 7,1 8,5 5 3 16 8 N 1023,1 33 0 0,0
17.02.2019 06:00:00 4,5 -6,1 -1,1 7,2 8,5 5 3 20 11 Z 1022,8 38 0 0,0
17.02.2019 05:00:00 8,7 -8,4 -0,7 7,3 8,5 8 5 18 10 ZZO 1021,8 46 0 0,0
17.02.2019 04:00:00 7,8 -6,7 0,8 7,4 8,5 11 6 37 20 Z 1022,1 38 0 0,0
17.02.2019 03:00:00 11,8 -8,7 -0,8 7,5 8,5 14 7 33 18 ZO 1022,0 41 0 0,0
17.02.2019 02:00:00 8,7 -6,7 -0,9 7,6 8,5 6 3 16 9 O 1022,6 29 0 0,0
17.02.2019 01:00:00 4,4 -3,6 -0,8 7,6 8,5 6 4 19 11 O 1023,4 20 0 0,0
17.02.2019 00:00:00 4,9 -2,2 -0,7 7,7 8,5 7 4 17 9 ZZO 1023,5 18 0 0,0
16.02.2019 23:00:00 3,9 -0,3 0,2 7,7 8,5 7 4 19 10 ZZO 1023,9 17 0 0,0
16.02.2019 22:00:00 3,4 0,8 0,4 7,6 8,5 7 4 12 6 ZZO 1024,4 21 0 0,0
16.02.2019 21:00:00 4,6 2,1 1,1 7,6 8,5 11 6 16 8 ZZO 1024,4 20 0 0,0
16.02.2019 20:00:00 6,3 2,0 1,4 7,5 8,5 5 3 8 5 NW 1024,6 20 0 0,0
16.02.2019 19:00:00 10,8 2,6 3,5 7,4 8,5 6 3 10 6 N 1023,8 29 9 0,0
16.02.2019 18:00:00 14,6 5,1 10,7 7,2 8,5 9 5 20 11 NNO 1023,0 28 60 0,0
16.02.2019 17:00:00 17,6 4,9 12,2 7,0 8,5 14 8 21 11 N 1022,8 43 60 0,0
16.02.2019 16:00:00 19,1 0,1 21,3 6,8 8,4 12 6 21 11 N 1023,0 47 60 0,0
16.02.2019 15:00:00 19,3 -4,3 24,4 6,6 8,5 7 4 18 10 NNO 1023,5 26 60 0,0
16.02.2019 14:00:00 18,5 -1,4 20,4 6,5 8,5 9 5 20 11 NNO 1024,6 27 60 0,0
16.02.2019 13:00:00 17,3 -4,7 14,9 6,5 8,5 10 5 18 10 NO 1025,8 23 60 0,0
16.02.2019 12:00:00 16,1 -3,4 10,5 6,5 8,5 8 5 15 8 NNO 1026,5 25 60 0,0
16.02.2019 11:00:00 15,1 -1,1 5,8 6,5 8,5 2 1 8 4 NNO 1026,9 14 60 0,0
16.02.2019 10:00:00 10,1 0,4 0,1 6,6 8,5 6 3 10 6 Z 1027,7 20 60 0,0
16.02.2019 09:00:00 3,7 -2,1 -1,3 6,7 8,5 8 5 13 7 Z 1028,8 20 41 0,0
16.02.2019 08:00:00 1,1 -4,0 -1,2 6,8 8,5 9 5 17 9 Z 1028,8 20 0 0,0
16.02.2019 07:00:00 2,6 -3,7 -0,7 6,9 8,5 13 7 22 12 Z 1028,6 25 0 0,0
16.02.2019 06:00:00 3,3 -2,7 -0,6 7,0 8,5 18 10 22 12 Z 1028,4 31 0 0,0
16.02.2019 05:00:00 3,6 -3,0 -0,7 7,1 8,5 13 7 23 13 Z 1028,3 25 0 0,0
16.02.2019 04:00:00 1,7 -2,6 -0,7 7,1 8,5 13 7 16 8 Z 1028,7 25 0 0,0
16.02.2019 03:00:00 3,6 -2,6 -0,5 7,2 8,5 11 6 21 11 Z 1028,5 29 0 0,0
16.02.2019 02:00:00 4,9 -2,2 -0,4 7,3 8,5 16 9 21 12 Z 1028,3 28 0 0,0
16.02.2019 01:00:00 4,0 -2,2 -0,3 7,4 8,5 16 9 19 10 Z 1028,5 25 0 0,0
16.02.2019 00:00:00 6,4 -2,8 -0,3 7,4 8,5 11 6 16 9 Z 1028,0 18 0 0,0
15.02.2019 23:00:00 5,6 -2,0 -0,2 7,5 8,5 11 6 16 8 Z 1028,1 20 0 0,0
15.02.2019 22:00:00 2,1 -1,5 -0,2 7,5 8,5 9 5 11 6 Z 1028,7 20 0 0,0
15.02.2019 21:00:00 3,9 -1,3 0,0 7,4 8,5 8 4 16 9 Z 1028,4 25 0 0,0
15.02.2019 20:00:00 4,1 -0,9 1,3 7,4 8,5 10 5 14 7 Z 1028,5 25 0 0,0
15.02.2019 19:00:00 6,1 0,4 2,7 7,2 8,5 7 4 9 5 ZZW 1027,8 37 8 0,0
15.02.2019 18:00:00 15,3 -1,3 8,6 7,0 8,5 6 3 14 8 N 1025,9 41 60 0,0
15.02.2019 17:00:00 16,9 -2,2 10,6 6,8 8,5 11 6 22 12 NNO 1025,6 39 60 0,0
15.02.2019 16:00:00 18,0 -5,3 20,7 6,6 8,5 13 7 23 12 NNO 1025,5 17 60 0,0
15.02.2019 15:00:00 18,6 -1,8 22,9 6,4 8,5 16 8 22 12 NNO 1025,4 22 60 0,0
15.02.2019 14:00:00 18,8 0,4 21,0 6,3 8,5 11 6 18 10 NNO 1025,5 23 60 0,0
15.02.2019 13:00:00 18,7 -0,2 16,2 6,3 8,5 8 4 16 9 N 1025,9 49 60 0,0
15.02.2019 12:00:00 18,4 0,5 11,1 6,3 8,5 5 3 9 5 NNO 1026,3 39 60 0,0
15.02.2019 11:00:00 16,7 -0,1 6,1 6,3 8,5 6 3 14 7 ZZO 1026,4 40 60 0,0
15.02.2019 10:00:00 11,6 0,9 0,1 6,4 8,5 6 3 16 9 ZZO 1027,2 30 60 0,0
15.02.2019 09:00:00 6,7 -2,5 -0,8 6,5 8,5 12 7 18 10 ZZO 1027,8 39 40 0,0
15.02.2019 08:00:00 3,6 -3,5 -1,1 6,6 8,5 14 7 18 10 Z 1028,0 46 0 0,0
15.02.2019 07:00:00 2,7 -3,0 -1,3 6,7 8,5 14 8 19 11 Z 1027,9 47 0 0,0
15.02.2019 06:00:00 2,1 -2,8 -1,5 6,8 8,5 11 6 17 9 ZZO 1027,9 46 0 0,0
15.02.2019 05:00:00 0,9 -2,5 -1,5 6,8 8,5 9 5 14 7 Z 1027,9 46 0 0,0
15.02.2019 04:00:00 3,1 -2,2 -1,5 6,9 8,5 8 4 11 6 Z 1027,5 49 0 0,0
15.02.2019 03:00:00 2,2 -1,8 - - - 8 4 11 6 Z 1028,0 35 - 0,0
15.02.2019 02:00:00 2,1 -1,5 -0,7 7,1 8,5 10 5 16 8 ZO 1028,2 37 0 0,0
15.02.2019 01:00:00 3,7 -0,7 -0,7 7,1 8,5 8 5 17 9 ZO 1028,2 29 0 0,0
15.02.2019 00:00:00 2,5 0,7 -0,6 7,2 8,5 5 3 10 5 Z 1028,6 23 0 0,0
14.02.2019 23:00:00 2,7 1,1 -0,4 7,2 8,5 6 3 8 4 Z 1028,8 19 0 0,0
14.02.2019 22:00:00 1,4 0,1 0,2 7,2 8,5 7 4 9 5 Z 1029,0 20 0 0,0
14.02.2019 21:00:00 3,4 1,4 0,6 7,1 8,5 7 4 12 6 Z 1028,8 17 0 0,0
14.02.2019 20:00:00 4,9 2,9 1,6 7,0 8,5 5 3 8 4 ZW 1028,6 28 0 0,0
14.02.2019 19:00:00 11,0 4,4 3,8 6,9 8,5 6 4 16 9 NNO 1027,9 33 6 0,0
14.02.2019 18:00:00 14,1 4,4 9,3 6,7 8,5 9 5 16 9 NO 1027,2 43 60 0,0
14.02.2019 17:00:00 16,3 3,7 10,6 6,5 8,5 9 5 21 11 NO 1027,1 53 60 0,0
14.02.2019 16:00:00 16,8 3,5 19,2 6,3 8,5 14 8 22 12 N 1027,1 31 60 0,0
14.02.2019 15:00:00 17,1 3,7 21,1 6,2 8,5 13 7 19 10 N 1027,4 34 60 0,0
14.02.2019 14:00:00 16,1 1,4 18,6 6,1 8,5 11 6 18 10 N 1028,1 33 60 0,0
14.02.2019 13:00:00 15,1 2,3 13,3 6,0 8,5 10 5 16 9 NNO 1028,7 31 60 0,0
14.02.2019 12:00:00 14,1 2,9 8,7 6,0 8,5 8 5 13 7 NNO 1029,4 30 60 0,0
14.02.2019 11:00:00 12,4 2,0 2,1 6,1 8,5 4 2 8 4 NNO 1029,7 37 60 0,0
14.02.2019 10:00:00 7,6 -1,1 -1,1 6,2 8,5 2 1 9 5 ZO 1030,2 33 60 0,0
14.02.2019 09:00:00 1,4 -2,0 -2,4 6,3 8,6 4 2 11 6 Z 1031,3 39 38 0,0
14.02.2019 08:00:00 0,0 -3,9 -2,4 6,4 8,5 5 3 13 7 ZO 1031,2 32 0 0,0
14.02.2019 07:00:00 1,1 -3,6 -2,4 6,5 8,6 10 6 15 8 Z 1031,0 42 0 0,0
14.02.2019 06:00:00 -0,5 -3,2 -2,2 6,6 8,5 10 5 16 9 ZZO 1031,6 38 0 0,0
14.02.2019 05:00:00 -0,1 -3,5 -2,1 6,7 8,6 6 4 19 10 ZO 1031,5 43 0 0,0
14.02.2019 04:00:00 1,2 -2,4 -2,0 6,8 8,6 12 6 16 8 Z 1031,7 41 0 0,0
14.02.2019 03:00:00 0,1 -2,1 -2,0 6,9 8,5 9 5 12 7 Z 1032,1 39 0 0,0
14.02.2019 02:00:00 -0,2 -1,6 -2,0 7,0 8,6 7 4 11 6 ZZO 1032,0 28 0 0,0
14.02.2019 01:00:00 -1,2 -2,8 -1,7 7,1 8,6 8 4 10 5 Z 1032,4 26 0 0,0
14.02.2019 00:00:00 0,4 -0,7 -1,4 7,1 8,6 7 4 9 5 ZZW 1032,0 28 0 0,0
13.02.2019 23:00:00 1,6 0,1 -1,0 7,1 8,6 4 2 11 6 ZZO 1031,8 19 0 0,0
13.02.2019 22:00:00 1,1 -0,5 -0,5 7,1 8,6 8 4 9 5 Z 1031,9 17 0 0,0
13.02.2019 21:00:00 1,8 -0,5 0,0 7,1 8,5 6 3 10 5 ZZO 1031,7 22 0 0,0
13.02.2019 20:00:00 2,7 -0,1 0,9 7,0 8,5 6 4 11 6 Z 1031,8 35 0 0,0
13.02.2019 19:00:00 8,2 1,1 1,8 6,8 8,5 4 2 12 7 N 1030,6 43 5 0,0
13.02.2019 18:00:00 10,8 2,9 7,7 6,7 8,6 10 6 17 9 N 1029,7 44 60 0,0
13.02.2019 17:00:00 14,1 2,3 9,5 6,5 8,5 11 6 16 9 N 1029,1 46 60 0,0
13.02.2019 16:00:00 15,2 -0,6 18,5 6,3 8,5 9 5 15 8 N 1028,8 37 60 0,0
13.02.2019 15:00:00 14,7 0,1 19,6 6,2 8,6 8 4 15 8 NNO 1028,9 19 60 0,0
13.02.2019 14:00:00 13,9 2,1 16,7 6,1 8,5 10 5 17 9 N 1029,2 19 60 0,0
13.02.2019 13:00:00 12,4 0,2 11,0 6,1 8,5 7 4 13 7 N 1029,8 12 60 0,0
13.02.2019 12:00:00 10,3 0,6 6,5 6,2 8,5 7 4 11 6 N 1030,4 17 60 0,0
13.02.2019 11:00:00 7,0 0,2 0,1 6,3 8,6 5 3 9 5 NW 1030,9 47 60 0,0
13.02.2019 10:00:00 4,0 0,7 -1,8 6,4 8,5 4 2 11 6 Z 1031,7 38 60 0,0
13.02.2019 09:00:00 -0,6 -1,9 -3,0 6,5 8,5 7 4 10 5 ZZO 1032,7 20 37 0,0
13.02.2019 08:00:00 -3,1 -5,4 -3,1 6,6 8,6 9 5 11 6 Z 1032,9 32 0 0,0
13.02.2019 07:00:00 -1,8 -3,1 -3,0 6,7 8,6 10 5 14 8 ZZO 1032,6 34 0 0,0
13.02.2019 06:00:00 -1,9 -3,0 -2,9 6,8 8,6 8 5 11 6 ZZO 1033,0 29 0 0,0
13.02.2019 05:00:00 -1,4 -1,7 -2,7 6,9 8,6 7 4 12 6 ZZO 1032,9 28 0 0,0
13.02.2019 04:00:00 -1,0 -1,7 -2,3 7,0 8,6 8 4 12 7 Z 1032,9 25 0 0,0
13.02.2019 03:00:00 -0,8 -1,1 -2,3 7,1 8,5 7 4 13 7 ZZO 1033,4 24 0 0,0
13.02.2019 02:00:00 -2,6 -3,3 -1,9 7,2 8,6 6 3 10 5 ZZW 1034,0 25 0 0,0
13.02.2019 01:00:00 -0,7 -1,4 -1,8 7,3 8,6 2 1 8 4 O 1033,9 19 0 0,0
13.02.2019 00:00:00 -0,7 -1,8 -1,3 7,4 8,6 6 3 7 4 ZZO 1034,4 15 0 0,0
12.02.2019 23:00:00 -0,1 -1,5 -0,8 7,4 8,6 4 2 9 5 ZO 1035,0 17 0 0,0
12.02.2019 22:00:00 1,2 0,0 -0,5 7,4 8,6 3 1 6 3 ZZW 1034,8 22 0 0,0
12.02.2019 21:00:00 2,3 1,0 0,1 7,4 8,6 4 2 8 4 Z 1034,3 20 0 0,0
12.02.2019 20:00:00 2,5 0,7 0,8 7,3 8,6 8 5 11 6 Z 1034,5 31 0 0,0
12.02.2019 19:00:00 7,4 2,3 1,9 7,2 8,6 7 4 14 8 NO 1033,5 32 4 0,0
12.02.2019 18:00:00 8,5 2,9 6,8 7,0 8,5 11 6 21 12 NNO 1032,8 32 60 0,0
12.02.2019 17:00:00 10,3 2,9 8,1 6,9 8,5 15 8 23 12 N 1032,8 23 60 0,0
12.02.2019 16:00:00 11,1 2,4 16,3 6,7 8,6 12 6 22 12 NNO 1032,9 50 60 0,0
12.02.2019 15:00:00 11,4 2,9 18,3 6,6 8,5 11 6 24 13 NO 1032,7 59 60 0,0
12.02.2019 14:00:00 10,8 2,1 14,7 6,6 8,5 9 5 26 14 NNO 1033,2 18 60 0,0
12.02.2019 13:00:00 10,1 2,4 10,9 6,6 8,6 14 7 28 15 O 1034,0 33 60 0,0
12.02.2019 12:00:00 9,0 2,8 7,8 6,6 8,5 14 8 25 14 ONO 1034,8 18 60 0,0
12.02.2019 11:00:00 8,1 2,1 1,0 6,6 8,5 8 5 15 8 O 1035,2 54 60 0,0
12.02.2019 10:00:00 4,4 1,6 -0,3 6,8 8,6 5 3 11 6 ZO 1036,6 54 60 0,0
12.02.2019 09:00:00 0,6 0,2 -1,0 6,9 8,6 7 4 16 9 ZZO 1036,9 40 36 0,0
12.02.2019 08:00:00 -0,5 -0,8 -1,0 6,9 8,5 9 5 14 7 ZZO 1036,4 39 0 0,0
12.02.2019 07:00:00 -1,0 -1,7 -0,7 7,0 8,6 10 5 14 8 Z 1036,3 56 0 0,0
12.02.2019 06:00:00 -0,6 -1,6 -0,3 7,1 8,5 10 6 16 9 Z 1036,0 47 0 0,0
12.02.2019 05:00:00 -0,3 -0,9 -0,1 7,2 8,6 11 6 14 8 ZZO 1035,5 35 0 0,0
12.02.2019 04:00:00 0,1 -0,5 0,1 7,3 8,6 6 3 14 7 ZZO 1035,4 18 0 0,0
12.02.2019 03:00:00 1,3 0,9 0,8 7,3 8,5 6 4 10 5 Z 1035,4 13 0 0,0
12.02.2019 02:00:00 2,0 1,4 0,7 7,4 8,6 9 5 11 6 Z 1035,7 27 0 0,0

tt = temperatuur
td = dauwpunt
tt 5cm = temperatuur 5cm
tt -20cm = temperatuur -20cm
tt -100cm = temperatuur -100cm
ff = windsnelheid
fx = windstoten
dd = windrichting
ppp = luchtdruk
vv = zicht
sd = Zonneschijnduur
rr = neerslag

Weerstations in de omgeving